Location: Unspecified
(43.4354°N, 0.0000°E)
Time: 22:56:33
(UTC+00:00)

SEEDS - Visible Passes

Search period start: 04 August 2020 00:00
Search period end: 14 August 2020 00:00
Orbit: 586 x 603 km, 97.5° (Epoch: 03 August)

Date Brightness Start Highest point End Pass type
(mag) Time Alt. Az. Time Alt. Az. Time Alt. Az.
09 Aug ? 04:06:41 10° ENE 04:07:59 11° E 04:09:15 10° ESE visible
10 Aug ? 04:15:10 10° ENE 04:17:29 14° E 04:19:47 10° ESE visible
11 Aug ? 04:24:04 10° NE 04:26:59 18° E 04:29:54 10° SE visible
